Regional Weather Roundup
Issued by NWS Sioux Falls, SD

Home | Current Version | Previous Version | Text Only | Print | Product List | Glossary Off
Versions: 1 2 3 4 5 6 7 8 9 10 11 12 13 14 15 16 17 18 19 20 21 22 23 24 25 26 27 28 29 30 31 32 33 34 35 36 37 38 39 40 41 42 43 44 45 46 47 48 49 50

000
ASUS43 KFSD 222202
RWRFSD

WEATHER ROUNDUP FOR SE SOUTH DAKOTA/SW MINNESOTA/NW IOWA
NATIONAL WEATHER SERVICE SIOUX FALLS SD
500 PM CDT FRI MAY 22 2015

NOTE: "FAIR" INDICATES FEW OR NO CLOUDS BELOW 12,000 FEET WITH NO
SIGNIFICANT WEATHER AND OR OBSTRUCTIONS TO VISIBILITY.


SDZ038>040-050-052>070-222300-
SOUTHEAST SOUTH DAKOTA

CITY           SKY/WX    TMP DP  RH WIND       PRES   REMARKS
BROOKINGS      CLOUDY    73  34  23 S7        30.15F
CHAMBERLAIN    NOT AVBL
HURON          CLOUDY    73  38  27 S10G20    30.12F
MADISON        MOCLDY    72  32  23 S9        30.16S
MITCHELL       CLOUDY    71  40  32 S13       30.14F
SIOUX FALLS    CLOUDY    70  38  31 S14       30.15F
WINNER         CLOUDY    63  42  46 S21       30.15S
YANKTON        CLOUDY    66  39  37 S20       30.17S
$$

MNZ071-072-080-081-089-090-097-098-222300-
SOUTHWEST MINNESOTA

CITY           SKY/WX    TMP DP  RH WIND       PRES   REMARKS
FAIRMONT       CLOUDY    73  30  20 E6        30.18S
JACKSON        CLOUDY    73  30  20 SW3       30.19S
LUVERNE        CLOUDY    73  30  20 S6        30.16F
MARSHALL       PTSUNNY   75  34  22 SE5       30.15F
MONTEVIDEO     MOSUNNY   79  34  19 SW3       30.16F
REDWOOD FALLS  PTSUNNY   75  31  19 VRB5      30.16F
TRACY          PTSUNNY   76  33  21 S5        30.16F
WINDOM         CLOUDY    73  25  16 CALM      30.18F
WORTHINGTON    CLOUDY    73  30  20 S8        30.17F
$$

IAZ001>003-012>014-020>022-031-032-NEZ013-014-SDZ071-222300-
NORTHWEST IOWA

CITY           SKY/WX    TMP DP  RH WIND       PRES   REMARKS
DENISON        CLOUDY    72  39  30 SW9G16    30.18F
ESTHERVILLE    CLOUDY    72  31  22 S6        30.18S
SIOUX CITY     CLOUDY    69  40  34 SW24      30.20S
SPENCER        CLOUDY    73  42  32 E6        30.18F
$$

ABBREVIATIONS USED IN REMARKS
   TC - TEMPERATURE IN CELSIUS
  WCI - WIND CHILL INDEX
   HX - HEAT INDEX
  VSB - VISIBILITY




USA.gov is the U.S. government's official web portal to all federal, state and local government web resources and services.